Location: Erba
(45.8000°N, 9.2500°E)
Time: 12:24:59
(UTC+02:00)

ISS - Pass Details

Date: 03 July 2020
Orbit: 417 x 420 km, 51.6° (Epoch: 02 July)

Event Time Altitude Azimuth Distance (km) Brightness Sun altitude
Exits shadow 04:09:19 19° 241° (WSW) 1,068 -2.3 -12.1°
Maximum altitude 04:11:37 90° 139° (SE) 422 -3.8 -11.8°
Drops below altitude 10° 04:14:58 10° 62° (ENE) 1,496 0.2 -11.4°
Sets 04:17:04 0° 62° (ENE) 2,362 1.4 -11.2°
